Weather History for Woensdrecht, Netherlands

Change the Weather History Date:

Thursday, April 4, 2013

  Actual Average Record
Temperature  
Mean Temperature 38 °F -  
Max Temperature 44 °F 57 °F 66 °F (2002)
Min Temperature 33 °F 40 °F 26 °F (2003)
Degree Days  
Heating Degree Days 26    
Moisture  
Dew Point 25 °F    
Average Humidity 60    
Maximum Humidity 70    
Minimum Humidity 49    
Precipitation  
Precipitation 0.00 in - - ()
Sea Level Pressure  
Sea Level Pressure 29.88 in    
Wind  
Wind Speed 12 mph ()    
Max Wind Speed 21 mph    
Max Gust Speed 29 mph    
Visibility 6.2 miles    
Events      
Averages and records for this station are not official NWS values.
T = Trace of Precipitation, MM = Missing Value Source: Averaged Metar Reports

Daily Weather History Graph

Daily Weather History Graph

Search for Another Location

Airport:

Trip Planner

Search our weather history database for the weather conditions in past years. The results will help you decide how hot, cold, wet, or windy it might be!

Date:

Astronomy

Apr. 04, 2013 Rise Set
Actual Time 7:11 AM CEST 8:21 PM CEST
Civil Twilight 6:37 AM CEST 8:55 PM CEST
Nautical Twilight 5:55 AM CEST 9:36 PM CEST
Astronomical Twilight 5:11 AM CEST 10:21 PM CEST
Moon 4:07 AM CEST (4/4) 1:43 PM CEST (4/4)
Length of Visible Light 14h 18m
Length of Day
13h 09m
Last Quarter, 36% of the Moon is Illuminated
Apr 4
Last Quarter
Apr 10
New
Apr 18
First Quarter
Apr 25
Full
May 2
Last Quarter

Hourly Weather History & Observations

Time (CEST) Temp. Windchill Dew Point Humidity Pressure Visibility Wind Dir Wind Speed Gust Speed Precip Events Conditions
12:25 AM 33.8 °F 25.8 °F 23.0 °F 65% 29.95 in 6.2 mi ENE 10.4 mph - N/A   Overcast
12:55 AM 35.6 °F 27.5 °F 23.0 °F 60% 29.95 in 6.2 mi ENE 11.5 mph - N/A   Overcast
1:25 AM 35.6 °F 27.5 °F 23.0 °F 60% 29.95 in 6.2 mi ENE 11.5 mph - N/A   Mostly Cloudy
1:55 AM 33.8 °F 24.8 °F 21.2 °F 60% 29.95 in 6.2 mi ENE 12.7 mph - N/A   Overcast
2:25 AM 33.8 °F 25.3 °F 21.2 °F 60% 29.95 in 6.2 mi ENE 11.5 mph - N/A   Overcast
2:55 AM 35.6 °F 27.5 °F 21.2 °F 56% 29.92 in 6.2 mi ENE 11.5 mph - N/A   Overcast
3:25 AM 35.6 °F 28.0 °F 23.0 °F 60% 29.92 in 6.2 mi NE 10.4 mph - N/A   Overcast
3:55 AM 35.6 °F 27.5 °F 23.0 °F 60% 29.92 in 6.2 mi NE 11.5 mph - N/A   Overcast
4:25 AM 35.6 °F 29.2 °F 23.0 °F 60% 29.92 in 6.2 mi NE 8.1 mph - N/A   Overcast
4:55 AM 35.6 °F 27.5 °F 23.0 °F 60% 29.89 in 6.2 mi NE 11.5 mph - N/A   Overcast
5:25 AM 35.6 °F 28.0 °F 23.0 °F 60% 29.89 in 6.2 mi NE 10.4 mph - N/A   Overcast
5:55 AM 33.8 °F 25.3 °F 23.0 °F 65% 29.89 in 6.2 mi NE 11.5 mph - N/A   Overcast
6:25 AM 33.8 °F 25.3 °F 23.0 °F 65% 29.89 in 6.2 mi NE 11.5 mph - N/A   Overcast
6:55 AM 33.8 °F 24.8 °F 23.0 °F 65% 29.89 in 6.2 mi NE 12.7 mph - N/A   Mostly Cloudy
7:25 AM 33.8 °F 24.3 °F 23.0 °F 65% 29.89 in 6.2 mi ENE 13.8 mph - N/A   Mostly Cloudy
7:40 AM 33.8 °F 24.8 °F 23.0 °F 65% 29.89 in 6.2 mi ENE 12.7 mph - N/A   Mostly Cloudy
7:42 AM 33.8 °F 25.3 °F 23.0 °F 65% 29.89 in 6.2 mi ENE 11.5 mph - N/A   Mostly Cloudy
7:47 AM 33.8 °F 25.3 °F 23.0 °F 65% 29.89 in 6.2 mi ENE 11.5 mph - N/A   Mostly Cloudy
7:55 AM 33.8 °F 24.8 °F 23.0 °F 65% 29.89 in 6.2 mi ENE 12.7 mph - N/A   Mostly Cloudy
8:25 AM 33.8 °F 24.3 °F 23.0 °F 65% 29.89 in 6.2 mi ENE 13.8 mph - N/A   Mostly Cloudy
8:28 AM 33.8 °F 23.9 °F 23.0 °F 65% 29.89 in 6.2 mi ENE 15.0 mph - N/A   Mostly Cloudy
8:34 AM 33.8 °F 23.5 °F 23.0 °F 65% 29.89 in 6.2 mi ENE 16.1 mph - N/A   Mostly Cloudy
8:38 AM 33.8 °F 23.2 °F 23.0 °F 65% 29.89 in 6.2 mi ENE 17.3 mph - N/A   Mostly Cloudy
8:40 AM 33.8 °F 23.5 °F 23.0 °F 65% 29.89 in 6.2 mi ENE 16.1 mph - N/A   Mostly Cloudy
8:48 AM 33.8 °F 24.3 °F 23.0 °F 65% 29.89 in 6.2 mi ENE 13.8 mph - N/A   Mostly Cloudy
8:55 AM 33.8 °F 23.9 °F 23.0 °F 65% 29.89 in 6.2 mi ENE 15.0 mph - N/A   Mostly Cloudy
8:56 AM 33.8 °F 23.9 °F 23.0 °F 65% 29.89 in 6.2 mi ENE 15.0 mph - N/A   Mostly Cloudy
9:02 AM 35.6 °F 26.2 °F 23.0 °F 60% 29.89 in 6.2 mi ENE 15.0 mph - N/A   Mostly Cloudy
9:25 AM 35.6 °F 25.5 °F 24.8 °F 65% 29.89 in 6.2 mi ENE 17.3 mph - N/A   Overcast
9:55 AM 35.6 °F 25.5 °F 24.8 °F 65% 29.89 in 6.2 mi ENE 17.3 mph - N/A   Mostly Cloudy
10:25 AM 35.6 °F 25.9 °F 24.8 °F 65% 29.89 in 6.2 mi ENE 16.1 mph - N/A   Mostly Cloudy
10:55 AM 37.4 °F 27.5 °F 24.8 °F 60% 29.89 in 6.2 mi ENE 18.4 mph - N/A   Mostly Cloudy
11:25 AM 37.4 °F 26.9 °F 24.8 °F 60% 29.89 in 6.2 mi ENE 20.7 mph - N/A   Scattered Clouds
11:55 AM 39.2 °F 29.8 °F 24.8 °F 56% 29.89 in 6.2 mi ENE 18.4 mph - N/A   Mostly Cloudy
12:25 PM 39.2 °F 30.8 °F 24.8 °F 56% 29.89 in 6.2 mi East 15.0 mph - N/A   Mostly Cloudy
12:55 PM 41.0 °F 33.5 °F 24.8 °F 53% 29.86 in 6.2 mi East 13.8 mph 25.3 mph N/A   Mostly Cloudy
1:13 PM 41.0 °F 32.5 °F 24.8 °F 53% 29.86 in 6.2 mi East 17.3 mph 28.8 mph N/A   Mostly Cloudy
1:17 PM 41.0 °F 32.8 °F 24.8 °F 53% 29.86 in 6.2 mi ENE 16.1 mph - N/A   Scattered Clouds
1:25 PM 42.8 °F 34.8 °F 24.8 °F 49% 29.86 in 6.2 mi ENE 17.3 mph - N/A   Scattered Clouds
1:55 PM 42.8 °F 34.5 °F 24.8 °F 49% 29.86 in 6.2 mi ENE 18.4 mph - N/A   Scattered Clouds
2:25 PM 44.6 °F 36.9 °F 26.6 °F 49% 29.86 in 6.2 mi ENE 18.4 mph - N/A   Scattered Clouds
2:55 PM 42.8 °F 34.5 °F 26.6 °F 53% 29.86 in 6.2 mi NE 18.4 mph - N/A   Mostly Cloudy
3:25 PM 42.8 °F 34.5 °F 26.6 °F 53% 29.86 in 6.2 mi ENE 18.4 mph - N/A   Mostly Cloudy
3:55 PM 41.0 °F 33.9 °F 26.6 °F 57% 29.86 in 6.2 mi East 12.7 mph - N/A   Mostly Cloudy
3:58 PM 42.8 °F 34.8 °F 26.6 °F 53% 29.86 in 6.2 mi ENE 17.3 mph - N/A   Mostly Cloudy
4:25 PM 42.8 °F 35.8 °F 26.6 °F 53% 29.86 in 6.2 mi ENE 13.8 mph - N/A   Partly Cloudy
4:55 PM 42.8 °F 34.8 °F 28.4 °F 57% 29.83 in 6.2 mi NE 17.3 mph - N/A   Scattered Clouds
5:25 PM 41.0 °F 33.5 °F 26.6 °F 57% 29.83 in 6.2 mi NE 13.8 mph - N/A   Mostly Cloudy
5:55 PM 42.8 °F 35.4 °F 26.6 °F 53% 29.83 in 6.2 mi NE 15.0 mph - N/A   Mostly Cloudy
6:25 PM 42.8 °F 35.8 °F 26.6 °F 53% 29.83 in 6.2 mi NE 13.8 mph - N/A   Partly Cloudy
6:55 PM 41.0 °F 32.8 °F 26.6 °F 57% 29.83 in 6.2 mi NE 16.1 mph - N/A   Mostly Cloudy
7:25 PM 39.2 °F 31.6 °F 26.6 °F 61% 29.83 in 6.2 mi NE 12.7 mph - N/A   Unknown
7:55 PM 39.2 °F 32.5 °F 26.6 °F 61% 29.83 in 6.2 mi ENE 10.4 mph - N/A   Mostly Cloudy
8:25 PM 39.2 °F 32.5 °F 26.6 °F 61% 29.83 in 6.2 mi ENE 10.4 mph - N/A   Mostly Cloudy
8:55 PM 37.4 °F 30.8 °F 26.6 °F 65% 29.83 in 6.2 mi NE 9.2 mph - N/A   Scattered Clouds
9:25 PM 37.4 °F 31.4 °F 26.6 °F 65% 29.83 in 6.2 mi NE 8.1 mph - N/A   Partly Cloudy
9:55 PM 37.4 °F 32.1 °F 26.6 °F 65% 29.83 in 6.2 mi NNE 6.9 mph - N/A   Partly Cloudy
10:25 PM 37.4 °F 31.4 °F 26.6 °F 65% 29.83 in 6.2 mi NNE 8.1 mph - N/A   Overcast
10:55 PM 37.4 °F 31.4 °F 26.6 °F 65% 29.83 in 6.2 mi NE 8.1 mph - N/A   Overcast
11:25 PM 37.4 °F 30.8 °F 26.6 °F 65% 29.83 in 6.2 mi NE 9.2 mph - N/A   Overcast
11:55 PM 37.4 °F 30.8 °F 28.4 °F 70% 29.83 in 6.2 mi NE 9.2 mph - N/A   Mostly Cloudy